User: anonymous   Login
Location: Chacón
(10.5789°N, 66.9317°W)
Time: 06:05:01
(UTC+00:00)
Language:

Cosmos 1943 Rocket - Orbit

View from above orbital plane
View from above orbital plane
View from above satellite
View from above satellite

Ground track
Ground track

The orbit data is extracted from the following two-line orbital elements,

1 19120U 88039B   24205.38451942  .00000060  00000-0  51474-4 0  9991
2 19120  71.0128 245.0501 0021665 177.7440 182.3787 14.19426679874049
Epoch (UTC): 23 July 2024 09:13:42
Eccentricity: 0.0021665
inclination: 71.0128°
perigee height: 811 km
apogee height: 843 km
right ascension of ascending node: 245.0501°
argument of perigee: 177.7440°
revolutions per day: 14.19426679
mean anomaly at epoch: 182.3787°
orbit number at epoch: 87404

The dashed part of the orbit path shows where the satellite is in the earth's shadow,  

DLR